Overview Statistics Trail Chart Weather Telemetry Raw packets
 

This is the latest recevied weather packets stored in our database for station/object OE6JUE. If no packets are shown the sender has not sent any weather packets the latest 10 day(s).

<< 71 72 73 74 75 76 77 >>
Time Temp. Humidity Pressure Rain* Wind** Luminosity Snow
1788179620 31.11° C 21% 1016.8 hPa 0 mm - - -
1788179320 30.56° C 21% 1016.6 hPa 0 mm - - -
1788179020 31.67° C 21% 1016.6 hPa 0 mm - - -
1788178721 32.22° C 20% 1016.7 hPa 0 mm - - -
1788178420 32.22° C 21% 1016.7 hPa 0 mm - - -
1788178120 32.22° C 21% 1016.8 hPa 0 mm - - -
1788177820 32.22° C 21% 1016.8 hPa 0 mm - - -
1788177520 32.22° C 21% 1016.7 hPa 0 mm - - -
1788177221 31.67° C 20% 1016.9 hPa 0 mm - - -
1788176920 31.67° C 21% 1016.9 hPa 0 mm - - -
1788176620 31.67° C 20% 1016.8 hPa 0 mm - - -
1788176335 31.67° C 20% 1016.8 hPa 0 mm - - -
1788176020 31.67° C 20% 1016.9 hPa 0 mm - - -
1788175720 31.67° C 13% 1017 hPa 0 mm - - -
1788175420 31.67° C 13% 1016.9 hPa 0 mm - - -
1788175120 31.11° C 13% 1017 hPa 0 mm - - -
1788174820 31.11° C 13% 1017.1 hPa 0 mm - - -
1788174520 31.11° C 20% 1017.1 hPa 0 mm - - -
1788174220 31.67° C 20% 1017.1 hPa 0 mm - - -
1788173920 31.11° C 20% 1017.1 hPa 0 mm - - -
1788173620 31.11° C 20% 1017.1 hPa 0 mm - - -
1788173321 31.11° C 22% 1017.2 hPa 0 mm - - -
1788173020 31.67° C 25% 1017.2 hPa 0 mm - - -
1788172720 31.67° C 28% 1017.1 hPa 0 mm - - -
1788172421 31.11° C 30% 1017.2 hPa 0 mm - - -

* Rain latest hour (hover to see other rain measurements)
** Current wind speed in m/s (hover to see current wind gust speed)